Weather History for Marshfield, WI

Change the Weather History Date:

Saturday, August 24, 2013

  Actual Average Record
Temperature  
Mean Temperature 70 °F -  
Max Temperature 84 °F 77 °F 99 °F (1948)
Min Temperature 57 °F 53 °F 35 °F (1934)
Cooling Degree Days 6    
Growing Degree Days 20 (Base 50)    
Moisture  
Dew Point 59 °F    
Average Humidity 67    
Maximum Humidity 93    
Minimum Humidity 38    
Precipitation  
Precipitation 0.00 in - - ()
Sea Level Pressure  
Sea Level Pressure 30.16 in    
Wind  
Wind Speed 8 mph (South)    
Max Wind Speed 17 mph    
Max Gust Speed 24 mph    
Visibility 10 miles    
Events      
Averages and records for this station are not official NWS values.
T = Trace of Precipitation, MM = Missing Value Source: NWS Daily Summary

Daily Weather History Graph

Daily Weather History Graph

Search for Another Location

Airport:

Trip Planner

Search our weather history database for the weather conditions in past years. The results will help you decide how hot, cold, wet, or windy it might be!

Date:

Astronomy

Aug. 24, 2013 Rise Set
Actual Time 6:14 AM CDT 7:51 PM CDT
Civil Twilight 5:43 AM CDT 8:21 PM CDT
Nautical Twilight 5:05 AM CDT 8:58 PM CDT
Astronomical Twilight 4:25 AM CDT 9:38 PM CDT
Moon 9:31 PM CDT (8/24) 10:26 AM CDT (8/24)
Length of Visible Light 14h 38m
Length of Day
13h 36m
Waning Gibbous, 84% of the Moon is Illuminated
Aug 24
Waning Gibbous
Aug 28
Last Quarter
Sep 5
New
Sep 12
First Quarter
Sep 19
Full

Hourly Weather History & Observations

Time (CDT) Temp. Heat Index Dew Point Humidity Pressure Visibility Wind Dir Wind Speed Gust Speed Precip Events Conditions
12:54 AM 61.0 °F - 57.0 °F 87% 30.16 in 10.0 mi South 5.8 mph - N/A   Clear
1:54 AM 61.0 °F - 57.9 °F 90% 30.16 in 10.0 mi South 4.6 mph - N/A   Clear
2:54 AM 59.0 °F - 57.0 °F 93% 30.18 in 10.0 mi SSW 3.5 mph - N/A   Clear
3:54 AM 60.1 °F - 55.9 °F 86% 30.19 in 10.0 mi Calm Calm - N/A   Clear
4:54 AM 57.0 °F - 54.0 °F 89% 30.20 in 10.0 mi South 6.9 mph - N/A   Clear
5:54 AM 60.1 °F - 55.0 °F 83% 30.20 in 10.0 mi South 5.8 mph - N/A   Clear
6:54 AM 61.0 °F - 54.0 °F 78% 30.21 in 10.0 mi South 5.8 mph - N/A   Clear
7:54 AM 63.0 °F - 53.1 °F 70% 30.22 in 10.0 mi South 8.1 mph - N/A   Clear
8:54 AM 70.0 °F - 50.0 °F 49% 30.22 in 10.0 mi South 11.5 mph - N/A   Mostly Cloudy
9:54 AM 72.0 °F - 51.1 °F 48% 30.22 in 10.0 mi SSE 12.7 mph - N/A   Overcast
10:54 AM 75.0 °F - 48.0 °F 38% 30.21 in 10.0 mi South 17.3 mph 23.0 mph N/A   Overcast
11:54 AM 75.0 °F - 52.0 °F 44% 30.21 in 9.0 mi SSE 11.5 mph - N/A   Overcast
12:54 PM 73.9 °F - 53.1 °F 48% 30.20 in 10.0 mi South 10.4 mph - N/A   Overcast
1:54 PM 77.0 °F - 60.1 °F 56% 30.18 in 10.0 mi SSE 10.4 mph - 0.00 in   Mostly Cloudy
2:54 PM 82.0 °F 83.1 °F 63.0 °F 52% 30.14 in 10.0 mi SSE 13.8 mph - N/A   Clear
3:54 PM 82.9 °F 84.6 °F 64.9 °F 54% 30.12 in 10.0 mi South 15.0 mph 24.2 mph N/A   Clear
4:54 PM 84.0 °F 86.5 °F 66.9 °F 56% 30.12 in 10.0 mi South 12.7 mph - N/A   Partly Cloudy
5:54 PM 82.0 °F 84.5 °F 66.9 °F 60% 30.11 in 10.0 mi South 15.0 mph - N/A   Clear
6:54 PM 80.1 °F 82.3 °F 66.9 °F 64% 30.10 in 10.0 mi South 12.7 mph - N/A   Clear
7:54 PM 77.0 °F - 66.9 °F 71% 30.10 in 10.0 mi South 10.4 mph - N/A   Clear
8:54 PM 75.0 °F - 66.9 °F 76% 30.12 in 10.0 mi South 10.4 mph - N/A   Clear
9:54 PM 73.9 °F - 66.9 °F 79% 30.11 in 10.0 mi South 11.5 mph - N/A   Mostly Cloudy
10:54 PM 73.9 °F - 66.0 °F 76% 30.09 in 10.0 mi South 15.0 mph - N/A   Partly Cloudy
11:54 PM 73.9 °F - 64.9 °F 73% 30.09 in 10.0 mi South 13.8 mph - N/A   Clear